• In Czech Republic
  • List of Countries
  • For 7 days
  • Water Temperature
  • Satellite Maps
  • Weather Map
  • Weather Widgets
  • user-avatar
    Login

    Hourly Weather Ashtarak

    Today, 20 October, Saturday

    Time Temperature Precipitation Wind Pressure Humidity
    00:00 +12°C° 0 mm 1 mps 659 mmHg 55%
    01:00 +12°C° 0.1 mm 1 mps 659 mmHg 54%
    02:00 +12°C° 0.1 mm 1 mps 659 mmHg 54%
    03:00 +11°C° 0 mm 1 mps 659 mmHg 52%
    04:00 +11°C° 0.1 mm 1 mps 659 mmHg 50%
    05:00 +11°C° 0.1 mm 1 mps 659 mmHg 49%
    06:00 +11°C° 0.1 mm 1 mps 659 mmHg 48%
    07:00 +13°C° 0.1 mm 1 mps 660 mmHg 47%
    08:00 +15°C° 0.1 mm 1 mps 660 mmHg 45%
    09:00 +18°C° 0.1 mm 1 mps 660 mmHg 44%
    10:00 +18°C° 0 mm 2 mps 660 mmHg 42%
    11:00 +19°C° 0 mm 2 mps 660 mmHg 41%
    12:00 +20°C° 0 mm 2 mps 660 mmHg 40%
    13:00 +20°C° 0 mm 2 mps 660 mmHg 40%
    14:00 +20°C° 0 mm 2 mps 659 mmHg 39%
    15:00 +20°C° 0 mm 2 mps 659 mmHg 39%
    16:00 +18°C° 0.2 mm 2 mps 659 mmHg 44%
    17:00 +17°C° 0.2 mm 2 mps 658 mmHg 49%
    18:00 +15°C° 0.2 mm 1 mps 658 mmHg 54%
    19:00 +15°C° 0.2 mm 1 mps 658 mmHg 55%
    20:00 +14°C° 0.2 mm 1 mps 658 mmHg 56%
    21:00 +14°C° 0.2 mm 1 mps 658 mmHg 57%
    22:00 +13°C° 0.1 mm 1 mps 658 mmHg 58%
    23:00 +13°C° 0.1 mm 1 mps 658 mmHg 59%

    Tomorrow, 21 October, Sunday

    Time Temperature Precipitation Wind Pressure Humidity
    00:00 +13°C° 0.1 mm 1 mps 658 mmHg 60%
    01:00 +12°C° 0.1 mm 1 mps 658 mmHg 62%
    02:00 +12°C° 0.1 mm 1 mps 658 mmHg 63%
    03:00 +12°C° 0.1 mm 1 mps 658 mmHg 64%
    04:00 +12°C° 0 mm 1 mps 658 mmHg 66%
    05:00 +12°C° 0 mm 1 mps 658 mmHg 67%
    06:00 +11°C° 0 mm 1 mps 658 mmHg 68%
    07:00 +13°C° 0 mm 1 mps 658 mmHg 62%
    08:00 +15°C° 0 mm 2 mps 659 mmHg 55%
    09:00 +17°C° 0 mm 2 mps 659 mmHg 49%
    10:00 +18°C° 0 mm 2 mps 659 mmHg 46%
    11:00 +19°C° 0 mm 2 mps 659 mmHg 43%
    12:00 +20°C° 0 mm 2 mps 659 mmHg 40%
    13:00 +20°C° 0 mm 3 mps 659 mmHg 40%
    14:00 +20°C° 0 mm 3 mps 658 mmHg 39%
    15:00 +20°C° 0 mm 3 mps 658 mmHg 38%
    16:00 +19°C° 0.2 mm 2 mps 658 mmHg 42%
    17:00 +17°C° 0.2 mm 2 mps 658 mmHg 46%
    18:00 +16°C° 0.2 mm 2 mps 658 mmHg 50%
    19:00 +15°C° 0.3 mm 1 mps 658 mmHg 51%
    20:00 +15°C° 0.3 mm 1 mps 658 mmHg 52%
    21:00 +15°C° 0.3 mm 1 mps 658 mmHg 53%
    22:00 +14°C° 0.2 mm 1 mps 658 mmHg 55%
    23:00 +14°C° 0.2 mm 1 mps 658 mmHg 56%

    Day after tomorrow, 22 October, Monday

    Time Temperature Precipitation Wind Pressure Humidity
    00:00 +13°C° 0.2 mm 1 mps 658 mmHg 57%
    01:00 +13°C° 0.1 mm 1 mps 658 mmHg 59%
    02:00 +13°C° 0.1 mm 1 mps 658 mmHg 61%
    03:00 +12°C° 0.1 mm 1 mps 658 mmHg 63%
    04:00 +12°C° 0.1 mm 1 mps 658 mmHg 64%
    05:00 +12°C° 0.1 mm 1 mps 658 mmHg 66%
    06:00 +12°C° 0.1 mm 1 mps 658 mmHg 68%
    07:00 +13°C° 0.1 mm 1 mps 658 mmHg 63%
    08:00 +14°C° 0.1 mm 1 mps 659 mmHg 59%
    09:00 +16°C° 0.1 mm 1 mps 659 mmHg 54%
    10:00 +17°C° 0.2 mm 2 mps 659 mmHg 53%
    11:00 +17°C° 0.2 mm 2 mps 659 mmHg 51%
    12:00 +18°C° 0.2 mm 2 mps 659 mmHg 49%
    13:00 +18°C° 0.1 mm 2 mps 659 mmHg 48%
    14:00 +19°C° 0.1 mm 2 mps 659 mmHg 47%
    15:00 +19°C° 0.1 mm 2 mps 659 mmHg 46%
    16:00 +17°C° 0.1 mm 2 mps 658 mmHg 51%
    17:00 +16°C° 0.1 mm 1 mps 658 mmHg 56%
    18:00 +14°C° 0.1 mm 1 mps 658 mmHg 60%
    19:00 +14°C° 0.2 mm 1 mps 658 mmHg 61%
    20:00 +14°C° 0.2 mm 1 mps 658 mmHg 62%
    21:00 +13°C° 0.2 mm 1 mps 658 mmHg 64%
    22:00 +13°C° 0.2 mm 1 mps 658 mmHg 64%
    23:00 +13°C° 0.2 mm 1 mps 658 mmHg 65%

    23 October, Tuesday

    Time Temperature Precipitation Wind Pressure Humidity
    00:00 +13°C° 0.2 mm 1 mps 658 mmHg 66%
    01:00 +12°C° 0.1 mm 1 mps 658 mmHg 67%
    02:00 +12°C° 0.1 mm 1 mps 658 mmHg 68%
    03:00 +12°C° 0.1 mm 1 mps 658 mmHg 69%
    04:00 +12°C° 0 mm 1 mps 658 mmHg 69%
    05:00 +11°C° 0 mm 1 mps 658 mmHg 70%
    06:00 +11°C° 0 mm 1 mps 658 mmHg 70%
    07:00 +13°C° 0 mm 1 mps 659 mmHg 64%
    08:00 +14°C° 0 mm 2 mps 659 mmHg 58%
    09:00 +16°C° 0 mm 2 mps 660 mmHg 52%
    10:00 +17°C° 0 mm 2 mps 660 mmHg 49%
    11:00 +18°C° 0 mm 3 mps 660 mmHg 47%
    12:00 +19°C° 0 mm 3 mps 660 mmHg 44%
    13:00 +19°C° 0.1 mm 3 mps 659 mmHg 44%
    14:00 +19°C° 0.1 mm 3 mps 659 mmHg 44%
    15:00 +19°C° 0.1 mm 3 mps 659 mmHg 43%
    16:00 +18°C° 0.1 mm 3 mps 658 mmHg 49%
    17:00 +16°C° 0.1 mm 2 mps 658 mmHg 54%
    18:00 +14°C° 0.1 mm 2 mps 658 mmHg 59%
    19:00 +14°C° 0.1 mm 2 mps 658 mmHg 60%
    20:00 +14°C° 0.1 mm 1 mps 658 mmHg 60%
    21:00 +13°C° 0.1 mm 1 mps 659 mmHg 61%
    22:00 +13°C° 0 mm 1 mps 658 mmHg 61%
    23:00 +13°C° 0 mm 1 mps 658 mmHg 62%

    24 October, Wednesday

    Time Temperature Precipitation Wind Pressure Humidity
    00:00 +12°C° 0 mm 1 mps 658 mmHg 62%
    01:00 +12°C° 0 mm 1 mps 658 mmHg 63%
    02:00 +12°C° 0 mm 1 mps 658 mmHg 63%
    03:00 +12°C° 0 mm 1 mps 658 mmHg 63%
    04:00 +12°C° 0 mm 2 mps 658 mmHg 64%
    05:00 +12°C° 0 mm 2 mps 657 mmHg 65%
    06:00 +10°C° 0 mm 2 mps 657 mmHg 65%
    07:00 +13°C° 0 mm 2 mps 658 mmHg 61%
    08:00 +13°C° 0 mm 3 mps 658 mmHg 56%
    09:00 +16°C° 0 mm 3 mps 658 mmHg 52%
    10:00 +17°C° 0 mm 3 mps 658 mmHg 49%
    11:00 +18°C° 0 mm 4 mps 658 mmHg 47%
    12:00 +19°C° 0 mm 4 mps 657 mmHg 45%
    13:00 +19°C° 0.1 mm 4 mps 657 mmHg 45%
    14:00 +19°C° 0.1 mm 4 mps 657 mmHg 45%
    15:00 +19°C° 0.1 mm 4 mps 656 mmHg 45%
    16:00 +17°C° 0.2 mm 4 mps 656 mmHg 49%
    17:00 +16°C° 0.2 mm 3 mps 655 mmHg 54%
    18:00 +14°C° 0.2 mm 3 mps 655 mmHg 58%
    19:00 +14°C° 0.2 mm 3 mps 655 mmHg 59%
    20:00 +14°C° 0.2 mm 2 mps 655 mmHg 59%
    21:00 +14°C° 0.2 mm 2 mps 655 mmHg 60%
    22:00 +14°C° 0.1 mm 2 mps 655 mmHg 62%
    23:00 +14°C° 0.1 mm 2 mps 654 mmHg 63%

    25 October, Thursday

    Time Temperature Precipitation Wind Pressure Humidity
    00:00 +13°C° 0.1 mm 2 mps 654 mmHg 64%
    01:00 +13°C° 0.2 mm 2 mps 654 mmHg 65%
    02:00 +13°C° 0.2 mm 2 mps 653 mmHg 66%
    03:00 +13°C° 0.2 mm 2 mps 653 mmHg 67%
    04:00 +13°C° 0.3 mm 2 mps 653 mmHg 68%
    05:00 +13°C° 0.3 mm 2 mps 653 mmHg 69%
    06:00 +13°C° 0.3 mm 2 mps 653 mmHg 70%
    07:00 +12°C° 0.8 mm 3 mps 653 mmHg 70%
    08:00 +12°C° 0.8 mm 3 mps 653 mmHg 70%
    09:00 +12°C° 0.8 mm 3 mps 653 mmHg 70%
    10:00 +14°C° 0 mm 4 mps 653 mmHg 64%
    11:00 +17°C° 0 mm 4 mps 653 mmHg 58%
    12:00 +17°C° 0 mm 5 mps 653 mmHg 51%
    13:00 +17°C° 0.1 mm 5 mps 652 mmHg 50%
    14:00 +19°C° 0.1 mm 5 mps 652 mmHg 49%
    15:00 +19°C° 0.1 mm 5 mps 651 mmHg 48%
    16:00 +18°C° 0.2 mm 4 mps 651 mmHg 52%
    17:00 +17°C° 0.2 mm 3 mps 651 mmHg 56%
    18:00 +15°C° 0.2 mm 2 mps 651 mmHg 60%
    19:00 +14°C° 0.3 mm 3 mps 651 mmHg 59%
    20:00 +14°C° 0.3 mm 3 mps 651 mmHg 59%
    21:00 +14°C° 0.3 mm 3 mps 651 mmHg 59%
    22:00 +14°C° 0.4 mm 4 mps 651 mmHg 59%
    23:00 +14°C° 0.4 mm 4 mps 651 mmHg 60%
    Show more